Regional Weather Roundup
Issued by NWS

Home | Current Version | Previous Version | Text Only | Print | Product List | Glossary Off
Versions: 1 2 3 4 5 6 7 8 9 10 11 12 13 14 15 16 17 18 19 20 21 22 23 24 25 26 27 28 29 30 31 32 33 34 35 36 37 38 39 40 41 42 43 44 45 46 47 48 49 50

000
ASUS43 KOAX 260802
RWRNE

WEATHER ROUNDUP FOR NEBRASKA
NATIONAL WEATHER SERVICE OMAHA NE
300 AM CDT MON SEP 26 2016

NOTES: SATELLITE DATA IS BEING USED TO AUGMENT CLOUD COVER ABOVE
       12000 FEET.
       "FAIR" INDICATES FEW OR NO CLOUDS BELOW 12,000 FEET WITH NO
       SIGNIFICANT WEATHER AND/OR OBSTRUCTIONS TO VISIBILITY.

  * THESE STATIONS DO NOT REPORT WEATHER SUCH AS RAIN...SNOW OR FOG.

NEZ001>004-019>022-054>056-260900-
NEBRASKA PANHANDLE

CITY           SKY/WX    TMP DP  RH WIND       PRES   REMARKS
SCOTTSBLUFF    CLEAR     39  35  86 CALM      30.38F
ALLIANCE       CLEAR     32  30  92 W6        30.37S WCI  26
CHADRON        CLEAR     39  34  82 SW5       30.35F
KIMBALL        CLEAR     39  35  86 W6        30.42S WCI  35
SIDNEY         CLEAR     37  33  85 NW5       30.40F WCI  33
$$

NEZ057>060-069>072-079>082-260900-
SOUTHWEST NEBRASKA

CITY           SKY/WX    TMP DP  RH WIND       PRES   REMARKS
NORTH PLATTE   CLEAR     37  32  82 NW5       30.37R WCI  33
IMPERIAL       CLEAR     44  34  67 NW3       30.39S
LEXINGTON      CLEAR     37  32  81 NW5       30.34S WCI  33
MCCOOK         CLEAR     38  31  76 SW5       30.37S WCI  34
OGALLALA       CLEAR     37  34  87 W3        30.39R
$$

NEZ005>010-023>029-035>040-094-260900-
NORTH CENTRAL NEBRASKA

CITY           SKY/WX    TMP DP  RH WIND       PRES   REMARKS
VALENTINE      CLEAR     38  31  76 W7        30.31F WCI  33
AINSWORTH      CLEAR     41  34  75 W6        30.30F
BROKEN BOW     CLEAR     33  30  88 CALM      30.32S
O`NEILL        CLEAR     43  33  66 W8        30.26F
ORD            CLEAR     36  31  82 NW6       30.29S WCI  31
THEDFORD       CLEAR     38  32  78 W6        30.35R WCI  34
$$

NEZ041-046>049-061>064-073>077-083>087-260900-
SOUTH CENTRAL NEBRASKA

CITY           SKY/WX    TMP DP  RH WIND       PRES   REMARKS
GRAND ISLAND   CLEAR     42  36  79 W6        30.30S
AURORA         CLEAR     42  39  90 SW6       30.29S
HASTINGS       CLEAR     46  34  62 W5        30.32R
HEBRON         CLEAR     44  39  81 CALM      30.30S
HOLDREGE       CLEAR     42  31  65 W6        30.34S
KEARNEY *      CLEAR     46  28  49 W6        30.32S
YORK           CLEAR     45  39  81 W7        30.28F
$$

NEZ011>018-030>034-042>045-260900-
NORTHEAST NEBRASKA

CITY           SKY/WX    TMP DP  RH WIND       PRES   REMARKS
NORFOLK        CLEAR     47  34  60 W10       30.24F
ALBION         CLEAR     39  35  83 NW5       30.27F
BLAIR          CLEAR     49  40  71 W6        30.22R
FREMONT        CLEAR     47  39  74 W6        30.24R
TEKAMAH        PTCLDY    53  38  56 W9        30.21F
WAYNE          CLEAR     46  37  70 W8        30.23F
$$

NEZ050>053-065>068-078-088>093-260900-
SOUTHEAST NEBRASKA

CITY           SKY/WX    TMP DP  RH WIND       PRES   REMARKS
LINCOLN        CLEAR     47  39  74 N3        30.27S
OMAHA EPPLEY   CLEAR     53  38  56 W7        30.22S
BEATRICE       PTCLDY    45  41  87 CALM      30.27S
FALLS CITY     PTCLDY    50  43  77 W8        30.24R
NEBRASKA CITY  CLEAR     51  32  48 NW8       30.24F
PLATTSMOUTH    CLEAR     49  38  67 W6        30.23S
$$

NEZ044-045-051>053-067-260900-
OMAHA AREA

CITY           SKY/WX    TMP DP  RH WIND       PRES   REMARKS
OMAHA EPPLEY   CLEAR     53  38  56 W7        30.22S
BLAIR          CLEAR     49  40  71 W6        30.22R
FREMONT        CLEAR     47  39  74 W6        30.24R
MILLARD        CLEAR     50  41  71 CALM      30.23S
OFFUTT AFB     CLEAR     48  40  74 NW7       30.21S
PLATTSMOUTH    CLEAR     49  38  67 W6        30.23S
WAHOO          FAIR      51  39  63 W6        30.24S
$$




USA.gov is the U.S. government's official web portal to all federal, state and local government web resources and services.